Location: Erfurt
(50.9688°N, 11.0193°E)
Time: 14:34:22
(UTC+02:00)

ISS - Visible Passes

Search period start: 24 July 2017 00:00
Search period end: 03 August 2017 00:00
Orbit: 400 x 408 km, 51.6° (Epoch: 24 July)

Date Brightness Start Highest point End Pass type
(mag) Time Alt. Az. Time Alt. Az. Time Alt. Az.
24 Jul -3.8 01:00:04 10° W 01:03:19 79° N 01:06:36 10° E visible
24 Jul -4.0 02:36:35 10° WNW 02:39:52 80° SSW 02:43:08 10° ESE visible
24 Jul -2.8 04:13:19 10° W 04:16:02 24° SSW 04:18:45 10° SSE visible
24 Jul -3.1 22:31:47 10° SW 22:34:43 31° SSE 22:37:40 10° E visible
25 Jul -3.9 00:07:44 10° WSW 00:11:00 90° N 00:14:16 10° E visible
25 Jul -3.9 01:44:17 10° W 01:47:33 85° NNE 01:50:50 10° E visible
25 Jul -3.3 03:20:50 10° W 03:23:53 36° SSW 03:26:55 10° SE visible
25 Jul -4.0 23:15:27 10° WSW 23:18:41 73° SSE 23:21:57 10° ENE visible
26 Jul -3.8 00:51:56 10° W 00:55:13 77° N 00:56:44 29° E visible
26 Jul -1.7 02:28:27 10° W 02:29:16 16° W 02:29:16 16° W visible
26 Jul -3.7 22:23:13 10° SW 22:26:25 53° SSE 22:29:36 10° E visible
26 Jul -3.8 23:59:35 10° W 00:02:51 77° N 00:05:20 16° E visible
27 Jul -2.5 01:36:06 10° WNW 01:37:56 30° W 01:37:56 30° W visible
27 Jul -3.9 23:07:13 10° W 23:10:29 85° N 23:13:46 10° E visible
28 Jul -3.9 00:43:46 10° W 00:46:57 85° WNW 00:46:57 85° WNW visible
28 Jul -3.9 22:14:52 10° WSW 22:18:08 80° SSE 22:21:23 10° ENE visible
28 Jul -3.8 23:51:24 10° W 23:54:40 79° N 23:56:06 31° E visible
29 Jul -1.5 01:27:54 10° W 01:28:42 16° W 01:28:42 16° W visible
29 Jul -3.7 22:59:00 10° W 23:02:15 77° N 23:05:17 12° E visible
30 Jul -3.1 00:35:31 10° WNW 00:37:53 43° W 00:37:53 43° W visible
30 Jul -3.8 22:06:35 10° W 22:09:51 82° N 22:13:08 10° E visible
30 Jul -4.0 23:43:08 10° W 23:46:24 85° SSW 23:47:07 51° ESE visible
31 Jul -3.8 22:50:43 10° W 22:53:59 82° N 22:56:21 17° E visible
01 Aug -2.2 00:27:16 10° W 00:28:58 26° W 00:28:58 26° W visible
01 Aug -3.7 21:58:17 10° W 22:01:34 77° N 22:04:50 10° E visible
01 Aug -3.9 23:34:48 10° W 23:38:02 59° SSW 23:38:14 58° S visible
02 Aug -3.9 22:42:22 10° WNW 22:45:38 80° SSW 22:47:30 23° ESE visible
